Regional Weather Roundup
Issued by NWS Goodland, KS

Home | Current Version | Previous Version | Graphics & Text | Print | Product List | Glossary On
Versions: 1 2 3 4 5 6 7 8 9 10 11 12 13 14 15 16 17 18 19 20 21 22 23 24 25 26 27 28 29 30 31 32 33 34 35 36 37 38 39 40 41 42 43 44 45 46 47 48 49 50
000
ASUS43 KGLD 241859
RWRGLD

GOODLAND FORECAST AREA HOURLY WEATHER ROUNDUP
NATIONAL WEATHER SERVICE GOODLAND KS
100 PM MDT WED MAY 24 2017

...OFFICIAL OBSERVATIONS...

CITY           SKY/WX    TMP DP  RH WIND       PRES   REMARKS
GOODLAND KS    SUNNY     67  43  41 S13G21    29.74F
HILL CITY KS   SUNNY     64  40  41 SE6       29.77F
IMPERIAL NEB   SUNNY     66  42  41 S12       29.71F
MCCOOK NEB     SUNNY     64  39  39 VRB3      29.73F
AKRON CO       SUNNY     74  39  28 W12       29.71F
BURLINGTON CO  SUNNY     69  44  40 S10G18    29.75F
LIMON CO       SUNNY     74  38  27 MISG      29.75F
$$

...UNOFFICIAL OBSERVATIONS...

CITY           SKY/WX    TMP DP  RH WIND       PRES   REMARKS
LENORA KS        N/A     61  32  33 MISG        N/A
NORTON KS      SUNNY     61  39  44 CALM      29.76F
SHARON SPRINGS   N/A     69  48  46 S12         N/A
TRENTON NEB      N/A     67  32  27 S5          N/A
KIT CARSON CO    N/A     70  42  36 MISG        N/A
YUMA CO        FAIR      72  41  33 SW5       29.69F
$$




USA.gov is the U.S. government's official web portal to all federal, state and local government web resources and services.